Погода в Крутихе

Россия / Алтайский край     53°57′54″N   81°12′30″E
темп.,
°C
ветер,
м/с
пор.,
м/с
влажн.,
%
обл.,
%
осадки,
мм/ч
давл.,
гПа
погр.,
м
22 мая, вс
вс2201:00+17юв3104898 0.0 1006198
04:00+15вюв2758100 0.0 1004137
07:00+18вюв41451100 0.0 1002420
10:00+22юв51139100 0.0 1001704
13:00+26ююв4634100 0.0 10001007
16:00+24юв564198 0.0 10001031
19:00+23ююв475287 0.0 1001427
22:00+19з71264100 0.0 1004499
23 мая, пн
пн2301:00+14з71454100 0.1 10111333
04:00+10юз268143 0.2 1014187
07:00+10юз385849 0.2 1018331
10:00+16зюз57330 0.0 10201409
13:00+19юз57270 0.0 10212051
16:00+21юз46240 0.0 10212356
19:00+20ююз44250 0.0 10212148
22:00+14ююз11382 0.0 102111
24 мая, вт
вт2401:00+12юв344111 0.0 102265
04:00+10юв25682 0.0 102288
07:00+11юв24644 0.0 1022135
10:00+18вюв23380 0.0 1021540
13:00+23св3424100 0.0 10191648
16:00+24св5525100 0.0 10171638
19:00+23св4729100 0.0 10171101
22:00+17ссв35496 0.0 101872
25 мая, ср
ср2501:00+14ссв36572 0.0 101788
04:00+13ссв38620 0.0 1017127
07:00+15ссв411591 0.0 1017288
10:00+22св593528 0.0 1017893
13:00+26св572899 0.0 10161477
16:00+27св572788 0.0 10151829
19:00+26св483299 0.0 10151635
22:00+19ссв22500 0.0 101626
26 мая, чт
чт2601:00+16ссв36580 0.0 101691
04:00+15ссв36630 0.0 101692
07:00+16ссв38622 0.0 1017209
10:00+25св47374 0.0 1016750
13:00+28всв46280 0.0 10152296
16:00+29всв45270 0.0 10142514
19:00+28св44310 0.0 10132042
22:00+21св36555 0.0 1014102